Regional Weather Roundup
Issued by NWS Upton, NY

Current Version | Previous Version | Graphics & Text | Print | Product List | Glossary Off
Versions: 1 2 3 4 5 6 7 8 9 10 11 12 13 14 15 16 17 18 19 20 21 22 23 24 25 26 27 28 29

000
ASUS41 KOKX 250908
RWROKX

REGIONAL WEATHER ROUNDUP
NATIONAL WEATHER SERVICE NEW YORK NY
400 AM EST SAT NOV 25 2017

NOTE: "FAIR" INDICATES FEW OR NO CLOUDS BELOW 12,000 FEET WITH NO
SIGNIFICANT WEATHER AND/OR OBSTRUCTIONS TO VISIBILITY.

NYZ071-072-176-178-NJZ106-104-251000-
NEW YORK CITY METRO AREA

CITY           SKY/WX    TMP DP  RH WIND       PRES   REMARKS
Central Park   CLEAR     43  30  60 VRB5      29.89F
Bronx Bot Gard   N/A     39  32  75 NE2       29.88S
Bronx Lehman C   N/A     45 N/A N/A SW8         N/A
LaGuardia APRT CLEAR     43  32  65 SW6       29.87F
Queens College   N/A     43 N/A N/A SW6         N/A
Kennedy INTL   CLEAR     39  36  89 SW9       29.89F WCI  33
Breezy Point     N/A     43 N/A N/A SW6         N/A
Brooklyn Coll    N/A     43 N/A N/A SW3         N/A
Staten Island    N/A     37 N/A N/A S3          N/A
Newark/Liberty PTCLDY    38  29  70 W5        29.88F WCI  34
Teterboro      CLEAR     35  27  72 CALM      29.87F
$$

NYZ177-179-078>081-251000-
LONG ISLAND NEW YORK

CITY           SKY/WX    TMP DP  RH WIND       PRES   REMARKS
Jones Beach      N/A     45 N/A N/A SW7         N/A
Wantagh          N/A     41 N/A N/A SW6         N/A
Matinecock PT    N/A     43 N/A N/A SW7         N/A
Farmingdale    PTCLDY    34  30  85 CALM      29.88F
MacArthur/ISP  CLEAR     35  32  88 CALM      29.87F
Shirley        CLEAR     32  32 100 CALM      29.89F
Mt Sinai Harb    N/A    N/A N/A N/A S1          N/A
Westhampton    CLEAR     26  24  92 CALM      29.90F
East Hampton   FAIR      30  29  97 CALM      29.88F
Southold         N/A     34 N/A N/A SW1         N/A
Montauk          N/A     47  41  80 W3        29.89F
$$

NYZ052-065-067-251000-
HUDSON VALLEY

CITY           SKY/WX    TMP DP  RH WIND       PRES   REMARKS
White Plains   CLEAR     38  31  76 W3        29.85F
Larchmont Harb   N/A     41 N/A N/A SW2         N/A
Croton On Huds   N/A     39 N/A N/A CALM        N/A
Somers           N/A     36 N/A N/A S7          N/A  WCI  30
Brewster         N/A     30 N/A N/A SE1         N/A
Newburgh       CLEAR     27  25  93 CALM      29.85F
Montgomery     CLEAR     24  21  88 CALM      29.83F
Suffern        NOT AVBL
Poughkeepsie   CLOUDY    27  22  81 CALM      29.84F
Albany         PTCLDY    41  22  46 S14       29.76F
$$

NJZ001-105-106-008-010-013-015-019>022-104-251000-
NEW JERSEY

CITY           SKY/WX    TMP DP  RH WIND       PRES   REMARKS
Newark/Liberty PTCLDY    38  29  70 W5        29.88F WCI  34
Teterboro      CLEAR     35  27  72 CALM      29.87F
Caldwell       CLEAR     29  26  89 CALM      29.88F
Somerville     CLOUDY    25  23  92 CALM      29.87S
Linden         FAIR      35  28  73 CALM      29.88F
Perth Amboy      N/A     36 N/A N/A NW2         N/A
Sussex         CLEAR     25  22  88 CALM      29.85F
Andover          N/A     28  25  88 CALM      29.85F
Trenton        CLOUDY    34  29  82 CALM      29.87F
Millville      CLEAR     27  27 100 CALM      29.88F
Atlantic City  CLOUDY    29  27  92 CALM      29.87F
Wrightstown    CLEAR     28  26  90 CALM      29.85F
Toms River     CLOUDY    25  22  88 CALM      29.89F
Belmar         NOT AVBL
$$

PAZ047>061-062-071-251000-
EASTERN PENNSYLVANIA

CITY           SKY/WX    TMP DP  RH WIND       PRES   REMARKS
Philadelphia   CLEAR     39  32  76 SW7       29.88F WCI  34
Allentown      CLOUDY    28  22  78 CALM      29.86F
Scranton       PTCLDY    38  25  59 CALM      29.79F
$$

CTZ002-004>006-009-010-012-RIZ004-006-007-MAZ004-011-015-251000-
SOUTHERN NEW ENGLAND
 IN CT

CITY           SKY/WX    TMP DP  RH WIND       PRES   REMARKS
Bradley INTL   PTCLDY    33  31  92 S7        29.85F WCI  27
Hartford       CLEAR     33  31  92 S5        29.86F WCI  29
Danbury        CLEAR     32  27  81 CALM      29.86F
Wtrbury/Oxford CLOUDY    36  28  73 S3        29.86S
Norwalk Harbor   N/A     37 N/A N/A NW3         N/A
Bridgeport     PTCLDY    36  31  82 CALM      29.87F
Meriden        CLEAR     27  26  96 CALM      29.87F
New Haven      CLEAR     34  28  79 CALM      29.87F
Chester        FAIR      41  34  75 VRB6      29.86F
Groton         CLEAR     48  40  73 SW12      29.87F
Wilimantic     CLEAR     28  25  88 CALM      29.88F

 IN RI

CITY           SKY/WX    TMP DP  RH WIND       PRES   REMARKS
Providence     PTCLDY    36  35  96 SW3       29.88F
Block Island     N/A    N/A N/A N/A MISG        N/A
Westerly       CLEAR     48  41  76 SW9       29.88F
 IN MA

CITY           SKY/WX    TMP DP  RH WIND       PRES   REMARKS
Boston         CLEAR     39  35  86 S8        29.86F WCI  33
Worcester      CLEAR     37  27  67 SW13      29.81F WCI  29
Westfield      CLEAR     27  25  92 CALM      29.83F
Provincetown   CLEAR     46  43  89 MISG        N/A
Nantucket      CLEAR     49  46  90 SW9       29.90F
$$

ANZ330-335-338-340-345-350-353-355-251000-
COASTAL MARINE OBSERVATIONS


STATION/POSITION TIME  SKY/WX   TEMP    WIND        PRES    VSBY  WAVE
                                AIR SEA DIR/SP/G                  HT/PER
                 (UTC)          (F)     (DEG/KT/KT) (MB)    (MI)  (FT/S)
NY HARB ENTRANCE 0850            49 56  240/ 10/ 14 1011.3          3/10
20 S FIRE ISLAND 0850            52 56  230/ 10/ 12 1011.9          4/10
GREAT SOUTH BAY  0830            42 44  310/  4/  4   N/A
HUDSON CANYON    0850            56 59  220/ 10/ 12 1011.6          4/10
KINGS POINT      0836            42 50  210/  2/  4 1012.5
EXECUTION ROCKS  0830            45     190/ 10/ 14   N/A
WESTERN LI SOUND 0749            45     220/ 12/ 16   N/A           1
CENTRAL LI SOUND 0815            49     240/ 14/ 16   N/A           2
ROBBINS REEF     0836            42     230/  6/  9 1012.3
$$


>>>>>>>>>>>>>>>>>>>>>>>>>>>> KEY <<<<<<<<<<<<<<<<<<<<<<<<<<<
>                                                          <
>     SKY/WX - Sky Condition/Present Weather               <
>     TMP    - Temperature in Fahrenheit                   <
>     DP     - Dew Point in Fahrenheit                     <
>     RH     - Relative Humidity in Percent                <
>     WIND   - Direction (from) and Speed in MPH           <
>     PRES   - Mean Sea Level Pressure (inches of Hg)      <
>     WCI    - Wind Chill Index                            <
>     VSB    - VISIBILITY IN MILES                         <
>     HX     - HEAT INDEX                                  <
>     TC     - TEMPERATURE IN CELSIUS                      <
>     VRB    - VARIABLE WIND DIRECTION                     <
>                                                          <
>>>>>>>>>>>>>>>>>>>>>>>>>>>> KEY <<<<<<<<<<<<<<<<<<<<<<<<<<<




USA.gov is the U.S. government's official web portal to all federal, state and local government web resources and services.